Regional Weather Roundup
Issued by NWS

Home | Current Version | Previous Version | Graphics & Text | Print | Product List | Glossary On
Versions: 1 2 3 4 5 6 7 8 9 10 11 12 13 14 15 16 17 18 19 20 21 22 23 24 25 26 27 28 29 30 31 32 33 34 35 36 37 38 39 40 41 42 43 44 45 46 47 48 49 50
000
ASUS43 KMPX 250610
RWRMN
WEATHER ROUNDUP FOR MINNESOTA
NATIONAL WEATHER SERVICE TWIN CITIES/CHANHASSEN MN
1200 AM CST SAT FEB 25 2017


NOTE: "FAIR" INDICATES FEW OR NO CLOUDS BELOW 12,000 FEET WITH NO
SIGNIFICANT WEATHER AND/OR OBSTRUCTIONS TO VISIBILITY. N/A MEANS
CURRENT SKY AND/OR WEATHER CONDITIONS ARE NOT AVAILABLE.

MNZ060>063-068>070-250700-
   Twin Cities Metro

CITY           SKY/WX    TMP DP  RH WIND       PRES   REMARKS
TWIN CITIES    PTCLDY    20   5  52 N22G30    29.89S WCI   3
6HR MIN TEMP:  20; 6HR MAX TEMP:  25;

ST PAUL        CLOUDY    22   9  57 NW21G26   29.89S WCI   6
CRYSTAL        CLEAR     20   3  48 N22G31    29.89S WCI   3
BLAINE         PTCLDY    19   9  63 NW16G26   29.89S WCI   5
LAKEVILLE      PTCLDY    19  10  68 NW16G22   29.87S WCI   5
EDEN PRAIRIE   CLEAR     21   6  52 N20G29    29.88S WCI   6
6HR MIN TEMP:  21; 6HR MAX TEMP:  25;

SOUTH ST PAUL  CLOUDY    23   8  54 NW14G22   29.88R WCI  10
LAKE ELMO      CLOUDY    21  10  63 N16G23    29.87S WCI   7
$$
MNZ001>005-007-008-013>017-022>024-027-028-250700-
   Northwest Minnesota

CITY           SKY/WX    TMP DP  RH WIND       PRES   REMARKS
BEMIDJI        CLEAR      9   2  75 NW13      29.97S WCI  -7
HALLOCK        PTCLDY     9   5  85 CALM      30.06F
ROSEAU         CLEAR      7   1  78 W6        30.04S WCI  -3
WARROAD        CLEAR      7   1  78 W6        30.02F WCI  -3
THIEF RVR FALL CLEAR     10   7  87 NW8       30.05F WCI  -2
CROOKSTON      CLEAR     16  10  79 NW8       30.08F WCI   5
FOSSTON        CLEAR     10   5  79 NW10      30.02F WCI  -3
DETROIT LAKES  CLEAR     14   9  79 NW15      30.01F WCI  -1
MOORHEAD       CLEAR     16  10  79 N9        30.08F WCI   4
PARK RAPIDS    CLEAR     12   1  61 NW12      29.96S WCI  -2
MAHNOMEN       FAIR      13   7  77 NW12      30.02F WCI  -1
$$
MNZ006-009>011-018-025>026-250700-
   North Central Minnesota

CITY           SKY/WX    TMP DP  RH WIND       PRES   REMARKS
BAUDETTE       CLEAR      7   0  73 NW9       29.98F WCI  -7
FLAG ISLAND    CLEAR      7   1  78 NW8       29.99F WCI  -6
INTL FALLS     CLEAR      5   0  79 NW7       29.94F WCI  -7
6HR MIN TEMP:   5; 6HR MAX TEMP:  17;

WASKISH        CLEAR      9   3  78 NW8       29.98F WCI  -4
BIG FORK       CLEAR      9   1  72 NW6       29.92F WCI  -1
LONGVILLE      CLEAR     10   5  79 NW6       29.94S WCI   1
GRAND RAPIDS   CLEAR      9   3  77 N13       29.92F WCI  -7
CRANE LAKE     MOCLDY     9   1  72 N6        29.92F WCI  -1
ORR            CLEAR      9   1  72 CALM      29.87F
COOK           PTCLDY    10   1  67 N7        29.88F WCI   0
WALKER         FAIR      10   2  72 NW14      29.96S WCI  -7
$$
MNZ012-019>021-037-250700-
   Northeast Minnesota

CITY           SKY/WX    TMP DP  RH WIND       PRES   REMARKS
DULUTH         PTCLDY    13   4  67 N16G23    29.82F WCI  -3
6HR MIN TEMP:  13; 6HR MAX TEMP:  19;

ELY            CLEAR      9   1  72 NW8       29.83F WCI  -4
HIBBING        CLEAR     10   1  67 NW14      29.86F WCI  -6
EVELETH        CLOUDY    14  -2  49 N7G17     29.86F WCI   3
DULUTH HARBOR  CLOUDY    19   9  63 N10       29.89F WCI   8
TWO HARBORS    PTCLDY    18   7  62 NW6       29.81F WCI   9
SILVER BAY     CLOUDY    16   3  57 N6        29.80F WCI   7
GRAND MARAIS     N/A     17   5  59 NE7       29.81F WCI   8
G MARAIS ARPRT CLOUDY     9   0  66 NW12G18   29.71F WCI  -6
$$
MNZ029>031-032-039>041-046>048-054>057-064-250700-
   West Central Minnesota

CITY           SKY/WX    TMP DP  RH WIND       PRES   REMARKS
FERGUS FALLS   CLEAR     16   7  67 N16       30.09S WCI   0
WHEATON        CLEAR     18   9  68 NW14      30.09S WCI   4
MORRIS         CLEAR     18   9  68 NW24      30.02S WCI   0
ALEXANDRIA     CLEAR     15   6  67 NW18      29.97S WCI  -2
ELBOW LAKE     FAIR      15   7  72 NW14      30.03S WCI   0
WADENA         CLEAR     12   7  79 NW10G20   29.97F WCI  -1
GLENWOOD       CLEAR     16   9  73 NW18      29.97S WCI  -1
APPLETON       CLEAR     19   7  58 N20G26    30.04S WCI   4
BENSON         CLEAR     18   7  62 N20G28    30.02S WCI   1
ORTONVILLE     CLEAR     18  10  73 NW13G18   30.05F WCI   4
MADISON        CLEAR     21  12  68 N20       30.05F WCI   6
WILLMAR        FAIR      19  12  73 NW16      29.98S WCI   5
$$
MNZ033>034-036-042>043-049>051-058-059-250700-
   Central Minnesota

CITY           SKY/WX    TMP DP  RH WIND       PRES   REMARKS
ST CLOUD       PTCLDY    18   7  62 N16G23    29.93S WCI   3
6HR MIN TEMP:  18; 6HR MAX TEMP:  23;

SAUK CENTRE    FAIR      16   8  70 NW20      29.96S WCI  -1
PAYNESVILLE    MOCLDY    18  11  75 NW12G20   29.96S WCI   5
AITKIN         CLEAR     16   3  57 NW10      29.91S WCI   3
PINE RIVER     CLEAR     12   7  79 NW8       29.98S WCI   1
BRAINERD       CLOUDY    15   7  70 NW20      29.94S WCI  -2
STAPLES        CLEAR     12   5  73 N13G20    29.96S WCI  -3
LONG PRAIRIE   FAIR      16   9  73 NW12G25   29.95S WCI   3
LITTLE FALLS   CLEAR     18   7  62 NW9G16    29.96S WCI   6
LITCHFIELD     CLEAR     19   9  63 N16       29.95R WCI   5
BUFFALO        PTCLDY    19   7  58 NW13G24   29.94R WCI   7
MAPLE LAKE     CLEAR     20  11  68 NW17G23   29.93S WCI   5
HUTCHINSON     CLEAR     20  10  65 NW18G25   29.94S WCI   5
$$
MNZ037-044-045-052-053-250700-
   East Central Minnesota

CITY           SKY/WX    TMP DP  RH WIND       PRES   REMARKS
PRINCETON      CLEAR     18   7  62 NW14G24   29.92S WCI   4
MORA           CLEAR     18   5  57 N10G23    29.92S WCI   6
CAMBRIDGE      CLEAR     19   7  58 NW14      29.89S WCI   6
RUSH CITY      CLEAR     18   7  62 N12G21    29.90R WCI   5
MOOSE LAKE     CLEAR     16   5  62 N14       29.87S WCI   1
HINCKLEY       FAIR      18   9  68 NW13      29.89S WCI   4
CLOQUET        CLOUDY    12   7  79 NW8       29.85F WCI   1
MCGREGOR       CLEAR     14   5  67 NW9       29.91S WCI   2
$$
MNZ071>073-080-081-089-090-097-098-250700-
   Southwest Minnesota

CITY           SKY/WX    TMP DP  RH WIND       PRES   REMARKS
MONTEVIDEO     CLEAR     18  10  73 N18G31    30.03S WCI   2
GRANITE FALLS  CLEAR     20  13  72 NW16G25   30.03S WCI   6
CANBY          CLEAR     20  16  83 NW15      30.05F WCI   6
MARSHALL       CLEAR     18  11  74 NW28G35   30.00F WCI  -1
REDWOOD FALLS  CLEAR     19   9  65 N18G30    29.98S WCI   4
OLIVIA         CLEAR     21  14  73 NW16G22   29.97S WCI   7
PIPESTONE      CLEAR     19  10  68 N21G26    30.00S WCI   3
WINDOM         CLEAR     18  12  79 NW28      29.95S WCI  -1
WORTHINGTON    CLEAR     16  11  80 NW22      29.98R WCI  -2
JACKSON        PTCLDY    18  12  79 NW26G33   29.94S WCI  -1
TRACY          CLEAR     19  13  75 NW24      30.00S WCI   2
SLAYTON        CLEAR     17  10  76 NW21G29   29.98S WCI   0
$$
MNZ065>067-074>077-082>085-091>093-250700-
   South Central Minnesota

CITY           SKY/WX    TMP DP  RH WIND       PRES   REMARKS
MANKATO          N/A     20  10  65 NW22G30   29.91S WCI   3
NEW ULM        CLEAR     19  12  73 NW18G31   29.94R WCI   4
ST JAMES       CLEAR     18  12  79 NW24G30   29.95S HAZE    WCI   0
FAIRMONT       PTCLDY    18  14  84 NW25      29.93R WCI   0
GLENCOE        CLEAR     22  12  67 NW16G24   29.92S WCI   8
FARIBAULT      CLEAR     19   9  63 NW10G22   29.88S WCI   8
OWATONNA       PTCLDY    16   7  67 NW13      29.87R WCI   2
WASECA         CLEAR     18   9  68 NW14      29.90R WCI   4
ALBERT LEA     CLEAR     18   9  68 NW13G20   29.86S WCI   4
$$
MNZ078>079-086>088-094>096-250700-
   Southeast Minnesota

CITY           SKY/WX    TMP DP  RH WIND       PRES   REMARKS
ROCHESTER      CLOUDY    17  10  74 N18       29.81R WCI   1
6HR MIN TEMP:  17; 6HR MAX TEMP:  21;

RED WING       PTCLDY    21   7  53 N8G17     29.84S WCI  12
STANTON        CLOUDY    22  11  62 NW20      29.85S WCI   7
WINONA         FLURRIES  21  18  86 NW9       29.83S WCI  11
AUSTIN         CLEAR     18  10  73 NW14      29.83S WCI   4
PRESTON        PTCLDY    18  12  79 N16       29.79S WCI   3
$$
ABBREVIATIONS USED IN REMARKS
   TC - TEMPERATURES IN CELSIUS
  WCI - WIND CHILL INDEX
   HX - HEAT INDEX
  VSB - VISIBILITY
$$



USA.gov is the U.S. government's official web portal to all federal, state and local government web resources and services.